Total_Precipitation_Accumulation
0.00 0.00 0.00 0.00 0.00 0.00 0.00 0.00 0.01 0.03 0.07 0.12 0.14 0.12 0.12 0.11 0.12 0.14 0.12 0.12 0.10 0.08 0.09 0.12 0.21 0.35 0.50 0.65 0.86 0.95 0.75 0.60 0.45 0.32 0.30 0.34 0.36 0.34 0.29 0.24 0.19 0.14 0.11
0.00 0.00 0.00 0.00 0.00 0.00 0.00 0.00 0.00 0.00 0.00 0.01 0.02 0.05 0.09 0.12 0.15 0.16 0.14 0.13 0.12 0.09 0.09 0.10 0.14 0.25 0.41 0.59 0.80 1.09 1.01 0.87 0.69 0.48 0.30 0.27 0.29 0.29 0.27 0.25 0.21 0.18 0.14
0.00 0.00 0.00 0.00 0.00 0.00 0.00 0.00 0.00 0.00 0.00 0.00 0.00 0.00 0.01 0.03 0.07 0.12 0.12 0.14 0.16 0.13 0.11 0.12 0.13 0.15 0.24 0.44 0.69 0.98 1.27 1.17 0.98 0.80 0.55 0.30 0.23 0.24 0.23 0.25 0.24 0.22 0.17
0.00 0.00 0.00 0.00 0.00 0.00 0.00 0.00 0.00 0.00 0.00 0.00 0.00 0.00 0.00 0.00 0.00 0.02 0.04 0.09 0.14 0.17 0.15 0.15 0.15 0.14 0.15 0.24 0.45 0.75 1.22 1.33 1.31 1.14 0.96 0.62 0.33 0.21 0.20 0.21 0.23 0.24 0.21
0.00 0.00 0.00 0.00 0.00 0.00 0.00 0.00 0.00 0.00 0.00 0.00 0.00 0.00 0.00 0.00 0.00 0.00 0.00 0.02 0.05 0.11 0.15 0.16 0.16 0.15 0.13 0.14 0.23 0.44 0.82 1.22 1.37 1.33 1.23 1.01 0.63 0.30 0.20 0.18 0.18 0.21 0.22
0.00 0.00 0.00 0.00 0.00 0.00 0.00 0.00 0.00 0.00 0.00 0.00 0.00 0.00 0.00 0.00 0.00 0.00 0.00 0.00 0.01 0.05 0.09 0.12 0.14 0.14 0.13 0.11 0.12 0.21 0.45 0.84 1.25 1.32 1.25 1.22 1.03 0.58 0.29 0.19 0.16 0.17 0.19
0.00 0.00 0.00 0.00 0.00 0.01 0.00 0.00 0.00 0.00 0.01 0.00 0.00 0.00 0.00 0.00 0.00 0.00 0.00 0.00 0.00 0.02 0.06 0.10 0.12 0.13 0.14 0.14 0.11 0.10 0.22 0.49 0.91 1.39 1.38 1.27 1.30 1.04 0.57 0.33 0.24 0.18 0.18
0.00 0.00 0.00 0.01 0.01 0.01 0.00 0.00 0.01 0.02 0.01 0.01 0.02 0.03 0.01 0.00 0.00 0.00 0.00 0.00 0.00 0.00 0.02 0.06 0.11 0.13 0.12 0.13 0.10 0.09 0.10 0.21 0.51 1.04 1.58 1.55 1.45 1.46 1.03 0.58 0.38 0.28 0.24
0.00 0.00 0.00 0.01 0.02 0.01 0.01 0.01 0.02 0.03 0.03 0.01 0.02 0.09 0.13 0.09 0.02 0.00 0.00 0.00 0.00 0.00 0.00 0.02 0.06 0.11 0.13 0.14 0.13 0.11 0.10 0.11 0.21 0.52 1.15 1.74 1.76 1.73 1.55 0.93 0.55 0.38 0.31
0.00 0.00 0.01 0.01 0.01 0.01 0.01 0.02 0.02 0.03 0.06 0.06 0.03 0.04 0.09 0.12 0.13 0.06 0.01 0.03 0.03 0.03 0.02 0.01 0.02 0.06 0.12 0.16 0.18 0.18 0.17 0.14 0.13 0.24 0.61 1.28 1.86 1.93 1.88 1.44 0.81 0.51 0.39
0.00 0.00 0.01 0.01 0.01 0.01 0.01 0.02 0.03 0.04 0.06 0.08 0.08 0.07 0.05 0.04 0.07 0.13 0.06 0.03 0.07 0.08 0.07 0.04 0.05 0.07 0.10 0.17 0.20 0.21 0.24 0.23 0.27 0.25 0.36 0.71 1.50 2.04 2.20 2.00 1.35 0.72 0.48
0.00 0.00 0.00 0.00 0.01 0.01 0.02 0.02 0.04 0.04 0.05 0.05 0.07 0.09 0.11 0.12 0.08 0.10 0.10 0.04 0.02 0.03 0.06 0.08 0.07 0.10 0.13 0.17 0.23 0.31 0.26 0.29 0.42 0.35 0.25 0.36 0.86 1.59 2.17 2.35 1.97 1.23 0.68
0.00 0.00 0.00 0.00 0.00 0.01 0.01 0.02 0.04 0.04 0.03 0.05 0.06 0.07 0.09 0.09 0.09 0.11 0.13 0.07 0.03 0.01 0.01 0.04 0.06 0.08 0.12 0.15 0.20 0.26 0.20 0.23 0.29 0.31 0.20 0.16 0.39 0.90 1.62 2.32 2.45 1.87 1.11
0.00 0.00 0.00 0.00 0.00 0.01 0.01 0.03 0.04 0.03 0.04 0.05 0.05 0.07 0.10 0.08 0.09 0.13 0.16 0.16 0.12 0.04 0.02 0.02 0.03 0.06 0.10 0.15 0.15 0.16 0.13 0.17 0.22 0.26 0.23 0.14 0.16 0.39 0.89 1.69 2.67 2.81 2.01
0.00 0.00 0.00 0.00 0.00 0.01 0.02 0.04 0.04 0.04 0.06 0.07 0.09 0.11 0.14 0.11 0.12 0.13 0.14 0.18 0.24 0.16 0.05 0.02 0.03 0.07 0.12 0.14 0.16 0.15 0.13 0.14 0.16 0.19 0.21 0.19 0.15 0.20 0.37 0.84 1.66 2.77 3.13
0.00 0.00 0.00 0.00 0.01 0.02 0.03 0.05 0.06 0.07 0.11 0.12 0.14 0.17 0.18 0.17 0.16 0.15 0.17 0.17 0.22 0.25 0.14 0.03 0.03 0.07 0.17 0.19 0.17 0.15 0.15 0.16 0.15 0.15 0.17 0.17 0.17 0.18 0.25 0.44 0.86 1.54 2.47
0.00 0.00 0.00 0.01 0.02 0.04 0.06 0.08 0.08 0.10 0.13 0.15 0.18 0.21 0.22 0.23 0.24 0.20 0.21 0.22 0.21 0.23 0.19 0.06 0.03 0.05 0.15 0.21 0.20 0.15 0.15 0.16 0.15 0.16 0.17 0.17 0.17 0.20 0.27 0.36 0.52 0.82 1.33
0.00 0.00 0.00 0.02 0.06 0.09 0.10 0.12 0.12 0.12 0.16 0.18 0.19 0.23 0.24 0.23 0.22 0.20 0.21 0.22 0.20 0.18 0.19 0.11 0.04 0.05 0.10 0.18 0.26 0.26 0.21 0.19 0.18 0.18 0.18 0.19 0.22 0.21 0.23 0.30 0.43 0.60 0.83
0.00 0.00 0.00 0.04 0.12 0.19 0.18 0.14 0.18 0.19 0.18 0.19 0.20 0.23 0.23 0.22 0.21 0.20 0.23 0.22 0.17 0.16 0.18 0.16 0.07 0.05 0.09 0.12 0.23 0.34 0.29 0.25 0.23 0.21 0.20 0.20 0.23 0.26 0.23 0.22 0.28 0.42 0.55
0.00 0.00 0.00 0.02 0.13 0.32 0.34 0.25 0.29 0.26 0.20 0.16 0.13 0.12 0.19 0.30 0.29 0.27 0.26 0.19 0.16 0.15 0.16 0.17 0.11 0.08 0.10 0.13 0.20 0.31 0.37 0.36 0.30 0.25 0.24 0.22 0.24 0.30 0.28 0.20 0.14 0.20 0.35
0.00 0.00 0.00 0.01 0.06 0.41 0.77 0.68 0.55 0.33 0.15 0.07 0.04 0.06 0.16 0.28 0.30 0.36 0.37 0.27 0.19 0.17 0.17 0.18 0.17 0.16 0.17 0.20 0.23 0.26 0.37 0.45 0.41 0.35 0.29 0.23 0.23 0.22 0.24 0.22 0.18 0.16 0.21
0.00 0.00 0.00 0.00 0.02 0.29 0.82 0.84 0.50 0.17 0.07 0.05 0.05 0.05 0.09 0.20 0.21 0.22 0.27 0.28 0.29 0.31 0.27 0.22 0.24 0.26 0.27 0.28 0.26 0.29 0.34 0.43 0.48 0.46 0.39 0.29 0.26 0.27 0.23 0.21 0.21 0.17 0.17
0.00 0.00 0.00 0.00 0.00 0.15 0.65 0.72 0.30 0.07 0.06 0.07 0.06 0.05 0.07 0.15 0.20 0.22 0.17 0.16 0.18 0.26 0.35 0.32 0.34 0.34 0.32 0.29 0.28 0.31 0.32 0.36 0.45 0.58 0.57 0.45 0.34 0.30 0.28 0.31 0.31 0.22 0.18
0.00 0.00 0.00 0.00 0.00 0.07 0.50 0.59 0.20 0.05 0.06 0.05 0.04 0.05 0.05 0.09 0.20 0.22 0.11 0.13 0.18 0.27 0.39 0.42 0.50 0.49 0.38 0.31 0.29 0.35 0.38 0.33 0.35 0.52 0.63 0.60 0.50 0.37 0.38 0.40 0.38 0.28 0.21
0.00 0.00 0.00 0.00 0.00 0.02 0.29 0.48 0.18 0.04 0.03 0.04 0.02 0.03 0.04 0.07 0.14 0.12 0.03 0.07 0.11 0.17 0.23 0.31 0.35 0.40 0.38 0.38 0.41 0.44 0.51 0.44 0.42 0.52 0.61 0.69 0.72 0.56 0.57 0.63 0.53 0.37 0.26
0.00 0.00 0.00 0.00 0.00 0.00 0.12 0.32 0.22 0.06 0.02 0.02 0.01 0.01 0.04 0.10 0.09 0.08 0.02 0.04 0.12 0.11 0.13 0.15 0.18 0.25 0.32 0.38 0.47 0.61 0.78 0.67 0.53 0.60 0.68 0.71 0.84 0.70 0.71 0.82 0.70 0.46 0.31